Date String (YYYY-MM-DD hh:mm:ss) UTC,Instrument flags,absolute air pressure of the measurement (hPa),sample flow rate (lpm),inlet stack bypass flow (lpm),air temperature of the measurement (°C),ambient temperature measured by the external sensor (°C),aerosol sample conditioner tube jacket temperature (°C),OPC LED temperature (°C),internal box temperature (°C),relative humidity of the measurement (%),span deviation,mass concentration of particles derived from Lorenz-Mie calculation of OPC scattering (μg/m³),mass concentration of particles derived from Lorenz-Mie calculation of OPC scattering (μg/m³),mass concentration of particles derived from Lorenz-Mie calculation of OPC scattering (μg/m³)
DateTimeUTC,F1_M11,P_M11,Q1_M11,Q2_M11,T1_M11,T2_M11,T3_M11,T4_M11,T5_M11,U1_M11,ZSPAN_M11,X0_M11,X2_M11,X1_M11
2023-07-01 15:00:00,SystemResetWarning,0835.2,5.00,000.00,029.6,028.3,000.0,038.1,031.2,26.2,0000.0,0005.32,0003.31,0002.98
2023-07-01 15:01:00,SystemResetWarning,0835.2,5.00,000.00,029.6,028.4,000.0,038.1,031.2,25.2,0000.0,0005.26,0003.32,0003.01
2023-07-01 15:02:00,SystemResetWarning,0835.2,4.99,000.00,029.6,028.4,000.0,038.1,031.3,24.4,0000.0,0006.80,0003.32,0003.03
2023-07-01 15:03:00,SystemResetWarning,0835.2,4.99,000.00,029.7,028.5,000.0,038.2,031.3,24.5,0000.0,0007.81,0003.32,0003.02
2023-07-01 15:04:00,SystemResetWarning,0835.2,5.00,000.00,029.7,028.5,000.0,038.2,031.3,25.7,0000.0,0007.80,0003.31,0003.02
2023-07-01 15:05:00,SystemResetWarning,0835.2,5.00,000.00,029.7,028.5,000.0,038.2,031.3,25.3,0000.0,0007.79,0003.30,0003.02
2023-07-01 15:06:00,SystemResetWarning,0835.3,4.99,000.00,029.7,027.7,000.0,038.1,031.3,26.0,0000.0,0007.72,0003.31,0003.04
2023-07-01 15:07:00,SystemResetWarning,0835.2,5.00,000.00,029.7,025.8,000.0,038.0,031.0,27.2,0000.0,0007.60,0003.29,0003.05
2023-07-01 15:08:00,SystemResetWarning,0835.2,5.00,000.00,029.6,025.1,000.0,037.9,030.8,26.3,0000.0,0007.53,0003.27,0003.06
2023-07-01 15:09:00,SystemResetWarning,0835.3,5.01,000.00,029.5,025.3,000.0,037.9,030.6,24.4,0000.0,0007.59,0003.28,0003.06
2023-07-01 15:10:00,SystemResetWarning,0835.3,5.00,000.00,029.4,025.7,000.0,037.9,030.5,25.3,0000.0,0007.61,0003.29,0003.07
2023-07-01 15:11:00,SystemResetWarning,0835.2,4.99,000.00,029.3,026.1,000.0,037.9,030.6,25.9,0000.0,0007.61,0003.30,0003.08
2023-07-01 15:12:00,SystemResetWarning,0835.2,5.00,000.00,029.3,026.5,000.0,037.9,030.7,25.6,0000.0,0007.67,0003.32,0003.08
2023-07-01 15:13:00,SystemResetWarning,0835.2,5.02,000.00,029.3,026.8,000.0,037.9,030.7,25.6,0000.0,0006.01,0003.32,0003.09
2023-07-01 15:14:00,SystemResetWarning,0835.2,4.99,000.00,029.3,027.1,000.0,037.9,030.8,25.5,0000.0,0004.66,0003.32,0003.11
2023-07-01 15:15:00,SystemResetWarning,0835.2,4.99,000.00,029.3,027.3,000.0,037.9,030.8,25.1,0000.0,0004.77,0003.34,0003.12
2023-07-01 15:16:00,SystemResetWarning,0835.2,5.00,000.00,029.3,027.5,000.0,037.9,030.9,24.9,0000.0,0004.66,0003.37,0003.13
2023-07-01 15:17:00,SystemResetWarning,0835.2,5.00,000.00,029.3,027.7,000.0,037.9,030.9,24.5,0000.0,0004.72,0003.38,0003.13
2023-07-01 15:18:00,SystemResetWarning,0835.2,5.01,000.00,029.3,027.8,000.0,037.9,030.9,25.2,0000.0,0004.85,0003.41,0003.14
2023-07-01 15:19:00,SystemResetWarning,0835.3,5.01,000.00,029.4,027.9,000.0,037.9,031.0,25.7,0000.0,0005.39,0003.46,0003.15
2023-07-01 15:20:00,SystemResetWarning,0835.3,4.99,000.00,029.4,028.0,000.0,037.9,031.0,26.0,0000.0,0006.17,0003.45,0003.15
2023-07-01 15:21:00,SystemResetWarning,0835.3,4.99,000.00,029.4,028.1,000.0,037.9,031.0,26.5,0000.0,0006.20,0003.46,0003.15
2023-07-01 15:22:00,SystemResetWarning,0835.3,5.00,000.00,029.4,028.2,000.0,037.9,031.0,26.0,0000.0,0006.27,0003.47,0003.15
2023-07-01 15:23:00,SystemResetWarning,0835.3,5.01,000.00,029.5,028.2,000.0,038.0,031.1,24.7,0000.0,0007.30,0003.45,0003.15
2023-07-01 15:24:00,SystemResetWarning,0835.4,5.01,000.00,029.5,028.3,000.0,038.0,031.1,25.0,0000.0,0007.55,0003.49,0003.16
2023-07-01 15:25:00,SystemResetWarning,0835.3,5.01,000.00,029.5,028.3,000.0,038.0,031.1,23.5,0000.0,0007.60,0003.51,0003.17
2023-07-01 15:26:00,SystemResetWarning,0835.2,5.01,000.00,029.5,028.4,000.0,038.0,031.2,23.8,0000.0,0007.66,0003.51,0003.17
2023-07-01 15:27:00,SystemResetWarning,0835.2,4.99,000.00,029.6,028.4,000.0,038.0,031.2,24.2,0000.0,0007.73,0003.52,0003.17
2023-07-01 15:28:00,SystemResetWarning,0835.2,4.98,000.00,029.6,027.4,000.0,038.0,031.2,24.8,0000.0,0007.83,0003.54,0003.17
2023-07-01 15:29:00,SystemResetWarning,0835.2,5.01,000.00,029.6,026.1,000.0,037.9,031.0,24.8,0000.0,0008.22,0003.53,0003.17
2023-07-01 15:30:00,SystemResetWarning,0835.2,5.01,000.00,029.5,026.2,000.0,037.8,030.9,25.9,0000.0,0008.22,0003.50,0003.17
2023-07-01 15:31:00,SystemResetWarning,0835.2,5.00,000.00,029.4,026.4,000.0,037.9,030.7,25.3,0000.0,0007.76,0003.51,0003.17
2023-07-01 15:32:00,SystemResetWarning,0835.3,5.00,000.00,029.4,026.7,000.0,037.9,030.8,24.8,0000.0,0007.82,0003.49,0003.17
2023-07-01 15:33:00,SystemResetWarning,0835.3,5.01,000.00,029.4,027.0,000.0,037.9,030.8,25.5,0000.0,0008.02,0003.48,0003.18
2023-07-01 15:34:00,SystemResetWarning,0835.3,4.99,000.00,029.4,027.2,000.0,037.9,030.9,26.2,0000.0,0007.28,0003.47,0003.19
2023-07-01 15:35:00,SystemResetWarning,0835.3,4.99,000.00,029.4,027.5,000.0,037.9,030.9,26.5,0000.0,0007.37,0003.45,0003.19
2023-07-01 15:36:00,SystemResetWarning,0835.3,5.01,000.00,029.4,027.6,000.0,037.9,031.0,25.4,0000.0,0007.32,0003.44,0003.19
2023-07-01 15:37:00,SystemResetWarning,0835.3,5.01,000.00,029.4,027.8,000.0,038.0,031.0,24.4,0000.0,0007.35,0003.44,0003.19
2023-07-01 15:38:00,SystemResetWarning,0835.3,5.01,000.00,029.4,027.9,000.0,038.0,031.0,25.2,0000.0,0007.80,0003.43,0003.20
2023-07-01 15:39:00,SystemResetWarning,0835.3,4.99,000.00,029.5,028.0,000.0,038.0,031.1,25.4,0000.0,0007.66,0003.41,0003.20
2023-07-01 15:40:00,SystemResetWarning,0835.3,4.99,000.00,029.5,028.1,000.0,038.0,031.1,24.3,0000.0,0007.34,0003.41,0003.20
2023-07-01 15:41:00,SystemResetWarning,0835.3,5.00,000.00,029.5,028.2,000.0,038.0,031.1,23.6,0000.0,0006.84,0003.42,0003.20
2023-07-01 15:42:00,SystemResetWarning,0835.3,5.00,000.00,029.5,028.3,000.0,038.0,031.2,24.3,0000.0,0007.29,0003.47,0003.21
2023-07-01 15:43:00,SystemResetWarning,0835.3,4.99,000.00,029.5,027.1,000.0,037.9,031.0,24.5,0000.0,0007.47,0003.50,0003.20
2023-07-01 15:44:00,SystemResetWarning,0835.3,5.00,000.00,029.5,025.3,000.0,037.8,030.8,25.8,0000.0,0007.27,0003.53,0003.20
2023-07-01 15:45:00,SystemResetWarning,0835.3,5.01,000.00,029.4,025.0,000.0,037.7,030.6,25.4,0000.0,0008.41,0003.55,0003.19
2023-07-01 15:46:00,SystemResetWarning,0835.2,5.02,000.00,029.3,025.3,000.0,037.7,030.4,24.9,0000.0,0009.59,0003.59,0003.18
2023-07-01 15:47:00,SystemResetWarning,0835.3,4.99,000.00,029.2,025.7,000.0,037.7,030.4,24.9,0000.0,0009.55,0003.61,0003.18
2023-07-01 15:48:00,SystemResetWarning,0835.3,4.99,000.00,029.1,026.1,000.0,037.8,030.5,25.5,0000.0,0009.62,0003.62,0003.19
2023-07-01 15:49:00,SystemResetWarning,0835.3,4.99,000.00,029.1,026.4,000.0,037.8,030.6,25.2,0000.0,0009.15,0003.63,0003.20
2023-07-01 15:50:00,SystemResetWarning,0835.3,5.00,000.00,029.1,026.8,000.0,037.8,030.6,23.4,0000.0,0009.14,0003.65,0003.20
2023-07-01 15:51:00,SystemResetWarning,0835.3,5.00,000.00,029.1,027.0,000.0,037.8,030.7,23.4,0000.0,0009.31,0003.64,0003.19
2023-07-01 15:52:00,SystemResetWarning,0835.3,5.01,000.00,029.2,027.3,000.0,037.8,030.7,24.1,0000.0,0009.24,0003.62,0003.20
2023-07-01 15:53:00,SystemResetWarning,0835.3,4.99,000.00,029.2,027.5,000.0,037.8,030.8,23.2,0000.0,0009.04,0003.59,0003.20
2023-07-01 15:54:00,SystemResetWarning,0835.3,4.99,000.00,029.2,027.6,000.0,037.8,030.8,23.0,0000.0,0008.87,0003.56,0003.21
2023-07-01 15:55:00,SystemResetWarning,0835.3,5.00,000.00,029.2,027.8,000.0,037.8,030.8,24.2,0000.0,0008.74,0003.54,0003.22
2023-07-01 15:56:00,SystemResetWarning,0835.3,4.99,000.00,029.2,027.9,000.0,037.8,030.9,24.3,0000.0,0008.12,0003.53,0003.22
2023-07-01 15:57:00,SystemResetWarning,0835.3,5.00,000.00,029.3,028.0,000.0,037.8,030.9,23.4,0000.0,0005.79,0003.51,0003.22
2023-07-01 15:58:00,SystemResetWarning,0835.3,5.01,000.00,029.3,028.0,000.0,037.8,030.9,25.5,0000.0,0005.42,0003.48,0003.21
2023-07-01 15:59:00,SystemResetWarning,0835.2,5.00,000.00,029.3,028.1,000.0,037.8,031.0,26.3,0000.0,0005.80,0003.45,0003.20
